Regional Weather Roundup
Issued by NWS Albany, NY

Home | Current Version | Previous Version | Text Only | Print | Product List | Glossary On
Versions: 1 2 3 4 5 6 7 8 9 10 11 12 13 14 15 16 17 18 19 20 21 22 23 24 25 26 27 28 29 30 31 32 33 34 35 36 37 38 39 40 41 42 43 44 45 46 47 48 49 50
000
ASUS41 KALY 261710
RWRALY

NEW YORK STATE HOURLY WEATHER ROUNDUP
NATIONAL WEATHER SERVICE ALBANY NY
100 PM EDT SAT JUL 26 2014

NOTE: "FAIR" INDICATES FEW OR NO CLOUDS BELOW 12,000 FEET WITH NO
SIGNIFICANT WEATHER AND/OR NO OBSTRUCTIONS TO VISIBILITY.

NYZ032-033-038>043-046>054-057>066-NYZ062>081-261800-
EAST


CITY           SKY/WX    TMP DP  RH WIND       PRES   REMARKS
ALBANY         PTSUNNY   77  57  50 S5        29.93F
GLENS FALLS    MOSUNNY   77  56  48 SW8       29.91F
POUGHKEEPSIE   CLOUDY    76  62  62 W7        29.95F
NEWBURGH       PTSUNNY   72  63  73 SW8       29.98F
MONTGOMERY     CLOUDY    73  61  65 SW7       29.97F
WHITE PLAINS   CLOUDY    73  62  68 CALM      29.97F
ISLIP          CLOUDY    76  61  59 S9        29.96F
NEW YORK CITY  CLOUDY    78  61  55 W7        29.96F
CENTRAL PARK   CLOUDY    75  62  64 VRB7      30.00F
$$

NYZ005>009-017-018-044>046-055-056-261800-
CENTRAL


CITY           SKY/WX    TMP DP  RH WIND       PRES   REMARKS
FULTON         CLOUDY    75  59  57 CALM      29.92F
SYRACUSE       PTSUNNY   78  56  46 SW12      29.92F
ROME           PTSUNNY   76  59  55 SW12      29.95F
ELMIRA         MOSUNNY   77  57  50 VRB3      29.95F
BINGHAMTON     CLOUDY    70  56  61 W6        29.99F
MONTICELLO     CLOUDY    68  61  77 NW5       30.01F
$$

NYZ026>034-041>043-261800-
NORTH


CITY           SKY/WX    TMP DP  RH WIND       PRES   REMARKS
WATERTOWN      SUNNY     76  60  57 SW12      29.91F
FORT DRUM      NOT AVBL
MASSENA        CLOUDY    72  61  68 SW10      29.88F
SARANAC LAKE   PTSUNNY   70  54  56 SW10      29.92S
PLATTSBURGH    MOSUNNY   78  56  46 VRB5      29.87F
$$

NYZ001>004-010>016-019>021-261800-
WEST


CITY           SKY/WX    TMP DP  RH WIND       PRES   REMARKS
NIAGARA FALLS  PTSUNNY   77  60  55 S12       29.90F
BUFFALO        MOSUNNY   75  56  51 SW13      29.92F
DUNKIRK        CLOUDY    75  56  51 W15       29.93F
JAMESTOWN      MOSUNNY   72  57  60 SW10      29.97F
WELLSVILLE     CLOUDY    73  54  51 SW10      30.01F
ROCHESTER      PTSUNNY   78  57  48 SW10      29.92F
PENN YAN       CLOUDY    75  57  53 S7        29.96S
$$

             KEY
       WCI = WIND CHILL INDEX
       VSB = VISIBILITY
       HX  = HEAT INDEX
$$


USA.gov is the U.S. government's official web portal to all federal, state and local government web resources and services.